Content
SEND FEEDBACK

Daily
Averages
Monthly
Summary
Czech Republic

CHEB, CZECH REPUBLIC


Home > Europe > Czech Republic
Elevation: 1545 feet     Latitude: 50 05N     Longitude: 012 24E

WEATHER
 
SELECT A DAY
Number of Records: 79,070;   Date Range: 6/5/97 - 7/23/14
 
SHARE

PRINT THIS DATA

[ ← Previous Day ]
WEATHER ALMANAC - JUNE 26, 2013
[ Next Day → ]
[ °C ]   °F
We're sorry. There is no daily almanac available for Cheb, Czech Republic on June 26, 2013.
WEATHER BY HOUR - JUNE 26, 2013
[ °C ]   °F
Local TimeTemperatureDewpointHumidityBarometerVisibilityWind DirectionWind SpeedGust SpeedPrecipitationEventsConditions
1:00 AM46.4 °F42.8 °F87 %30.18 in6.2 miWest (260°)9.2 mphOvercast
2:00 AM46.4 °F44.6 °F93 %30.18 in6.2 miWest (270°)9.2 mphMostly Cloudy
3:00 AM46.4 °F42.8 °F87 %30.18 in6.2 miWest (270°)11.5 mphMostly Cloudy
4:00 AM46.4 °F42.8 °F87 %30.18 in6.2 miWest (270°)10.4 mphMostly Cloudy
5:00 AM46.4 °F42.8 °F87 %30.18 in6.2 miWest (260°)10.4 mphMostly Cloudy
6:00 AM44.6 °F42.8 °F93 %30.18 in6.2 miWSW (250°)9.2 mphMostly Cloudy
7:00 AM46.4 °F42.8 °F87 %30.18 in6.2 miWest (260°)10.4 mphRainLight Rain
8:00 AM44.6 °F42.8 °F93 %30.18 in6.2 miWest (260°)9.2 mphRainLight Rain
8:30 AM44.6 °F42.8 °F93 %30.21 in6.2 miWest (260°)9.2 mphRainLight Rain
9:00 AM46.4 °F42.8 °F87 %30.21 in6.2 miWest (270°)10.4 mphRainLight Rain
9:30 AM44.6 °F42.8 °F93 %30.21 in6.2 miWest (260°)9.2 mphRainLight Rain
10:00 AM44.6 °F42.8 °F93 %30.21 in6.2 miWest (260°)9.2 mphRainLight Rain
10:30 AM46.4 °F42.8 °F87 %30.24 in6.2 miWest (270°)10.4 mphRainLight Rain
11:00 AM44.6 °F42.8 °F93 %30.24 in6.2 miWest (270°)10.4 mphRainLight Rain
11:30 AM44.6 °F42.8 °F93 %30.24 in6.2 miWest (260°)8.1 mphRainLight Rain
12:00 PM46.4 °F42.8 °F87 %30.24 in6.2 miWest (260°)6.9 mphRainLight Rain
12:30 PM46.4 °F39.2 °F76 %30.24 in6.2 miWest (270°)10.4 mphMostly Cloudy
1:00 PM46.4 °F41.0 °F81 %30.24 in6.2 miWSW (250°)8.1 mphMostly Cloudy
1:30 PM46.4 °F41.0 °F81 %30.24 in6.2 miWSW (250°)8.1 mphMostly Cloudy
2:00 PM46.4 °F41.0 °F81 %30.27 in6.2 miWest (280°)11.5 mphMostly Cloudy
2:30 PM48.2 °F41.0 °F76 %30.24 in6.2 miWSW (250°)6.9 mphMostly Cloudy
3:00 PM48.2 °F39.2 °F71 %30.27 in6.2 miWest (270°)13.8 mphMostly Cloudy
3:30 PM50.0 °F39.2 °F66 %30.27 in6.2 miWest (270°)10.4 mphMostly Cloudy
4:00 PM50.0 °F39.2 °F66 %30.24 in6.2 miWest (270°)12.7 mphMostly Cloudy
4:30 PM50.0 °F39.2 °F66 %30.24 in6.2 miWest (280°)16.1 mphMostly Cloudy
5:00 PM50.0 °F37.4 °F62 %30.24 in6.2 miWNW (300°)16.1 mphMostly Cloudy
5:30 PM50.0 °F39.2 °F66 %30.27 in6.2 miWest (280°)12.7 mphMostly Cloudy
6:00 PM51.8 °F37.4 °F58 %30.24 in6.2 miWest (270°)11.5 mphScattered Clouds
6:30 PM51.8 °F35.6 °F54 %30.24 in6.2 miWNW (290°)11.5 mphPartly Cloudy
7:00 PM51.8 °F37.4 °F58 %30.27 in6.2 miWest (270°)8.1 mphScattered Clouds
7:30 PM50.0 °F37.4 °F62 %30.27 in6.2 miWest (260°)6.9 mphPartly Cloudy
8:00 PM50.0 °F39.2 °F66 %30.27 in6.2 miWSW (250°)6.9 mphScattered Clouds
8:30 PM48.2 °F39.2 °F71 %30.27 in6.2 miWSW (250°)6.9 mphScattered Clouds
9:00 PM48.2 °F41.0 °F76 %30.27 in6.2 miWSW (240°)5.8 mphScattered Clouds
10:00 PM48.2 °F41.0 °F76 %30.27 in6.2 miWSW (240°)5.8 mphMostly Cloudy
11:00 PM48.2 °F41.0 °F76 %30.27 in6.2 miWSW (250°)8.1 mphMostly Cloudy
Hourly data recorded from LKKV, located miles away from Cheb, Czech Republic







STORIES FROM OUR PARTNERS